Regional Weather Roundup
Issued by NWS

Home | Current Version | Previous Version | Text Only | Print | Product List | Glossary Off
Versions: 1 2 3 4 5 6 7 8 9 10 11 12 13 14 15 16 17 18 19 20 21 22 23 24 25 26 27 28 29 30 31 32 33 34 35 36 37 38 39 40 41 42 43 44 45 46 47 48 49 50

000
ASUS45 KSLC 251810
RWRUT

UTAH REGIONAL WEATHER ROUNDUP
NATIONAL WEATHER SERVICE SALT LAKE CITY UT
1200 PM MDT TUE JUL 25 2017

UTZ001>011-023>025-251900-

NORTHERN UTAH

CITY           SKY/WX    TMP DP  RH WIND       PRES   REMARKS
BRIGHAM CITY   CLOUDY    77  54  45 N5        30.13S
DUGWAY         PTSUNNY   76  55  48 S9        30.12S
HILL AFB       PTSUNNY   75  56  51 E9        30.15S
LOGAN          CLOUDY    74  59  59 CALM      30.14S
OGDEN          PTSUNNY   79  53  40 CALM      30.12S
SALT LAKE CITY LGT RAIN  75  62  64 S8        30.11S
TOOELE VALLEY  CLOUDY    77  59  53 SE8       30.13S
WENDOVER       MOSUNNY   81  54  39 SE8       30.12S
HEBER CITY     CLOUDY    70  55  60 CALM      30.19S
WEST JORDAN    CLOUDY    71  65  82 CALM      30.15S

$$

UTZ011>015-024>027-251900-

CENTRAL/NORTHEAST UTAH

CITY           SKY/WX    TMP DP  RH WIND       PRES   REMARKS
PROVO AIRPORT  CLOUDY    73  63  68 VRB6      30.15S
MOAB/CANYONLAN CLOUDY    72  64  76 N6        30.15R
DELTA          CLOUDY    73  55  53 S3        30.16S
PRICE          CLOUDY    66  62  87 CALM      30.23S
ROOSEVELT      LGT RAIN  66  61  82 SE7       30.22S
VERNAL         CLOUDY    65  61  87 CALM      30.21S

$$

UTZ013>016-019>022-027-251900-

SOUTHERN UTAH

CITY           SKY/WX    TMP DP  RH WIND       PRES   REMARKS
BRYCE CANYON   LGT RAIN  61  59  93 W7        30.34R
CEDAR CITY     CLOUDY    63  62  97 NE5       30.21S
MILFORD        CLOUDY    69  62  78 S10       30.18S
ST GEORGE      CLOUDY    72  68  88 SW6       30.10R
HANKSVILLE     CLOUDY    68  63  83 W8        30.17F
BLANDING       CLOUDY    75  57  53 S10G17    30.30F

$$

REGIONAL REPORTS     COLORADO/ARIZONA

CITY           SKY/WX    TMP DP  RH WIND       PRES   REMARKS
CRAIG, CO      CLOUDY    73  55  53 NW5       30.25F
GRAND JUNCTION PTSUNNY   75  62  64 CALM      30.16F
RIFLE, CO      CLOUDY    71  59  65 CALM      30.22F
MONTROSE, CO   MOSUNNY   74  60  61 VRB3      30.23F
CORTEZ, CO     CLOUDY    77  58  51 S5        30.24S
COLORADO CITY  LGT RAIN  68  64  88 CALM      30.20S
PAGE, AZ       CLOUDY    78  63  59 VRB5      30.12R
GRAND CANYON   CLOUDY    65  61  87 SW17      30.31R
KINGMAN, AZ    CLOUDY    71  66  84 N17       30.14R
FLAGSTAFF, AZ  PTSUNNY   66  58  75 SW16      30.36S

$$

REGIONAL REPORTS    NEVADA/IDAHO/WYOMING

CITY           SKY/WX    TMP DP  RH WIND       PRES   REMARKS
LAS VEGAS, NV  CLOUDY    79  67  66 SE3       30.05S
ELY, NY        CLOUDY    72  50  45 CALM      30.22S
ELKO, NV       SUNNY     81  46  29 VRB3      30.14F
POCATELLO, ID  CLOUDY    80  53  39 SW9       30.12R
BURLEY, ID     CLOUDY    77  56  48 S8        30.08S
FORT BRIDGER,  CLOUDY    68  52  56 W12       30.30S
EVANSTON, WY   CLOUDY    63  56  78 W6        30.30S
ROCK SPRINGS,  CLOUDY    68  50  52 SE5       30.26S
KEMMERER, WY     N/A     68  46  45 W14       30.29F

$$



USA.gov is the U.S. government's official web portal to all federal, state and local government web resources and services.